Vorticity
8 8 8 8 8 9 9 8 8 8 8 8 8 8 9 9 10 10 9 9 9 9 10 11 12 11 10 8 8 8 8 9 11 12 9 9 11 11 11 8 6 6 7 7 4 3 2 2 4 4 7 8 9 11 12 12 10 9 9 9 7 7 7 7 8 5 7 4 8 16 2 0 11 12 12 -0 -2 3 4 13 7 1 3 3 5 2 2 5
10 9 8 8 7 7 7 7 8 8 8 8 9 9 9 9 9 10 10 10 9 9 9 10 12 12 11 10 9 9 8 8 9 10 9 10 10 8 10 12 10 8 7 7 7 6 3 2 2 3 4 5 6 8 10 12 12 11 9 8 7 5 7 8 9 9 8 6 13 10 -5 -0 -0 2 16 9 2 2 12 16 1 1 2 2 4 0 3 3
8 9 10 10 10 10 9 8 8 8 8 8 9 9 10 10 10 10 9 10 10 10 9 9 10 11 11 12 11 10 10 9 8 7 8 11 11 9 8 9 11 11 9 7 7 8 7 5 2 2 3 3 4 5 7 9 11 13 13 12 9 6 5 7 9 10 10 11 21 15 2 5 -3 -2 8 7 7 2 8 8 -5 2 4 2 4 1 3 4
8 8 9 9 11 12 14 14 13 12 11 9 9 9 10 10 10 11 10 10 10 10 9 9 9 10 10 10 11 11 10 10 9 7 8 10 11 11 9 9 9 9 11 10 8 7 7 7 5 4 2 2 3 3 4 5 8 10 12 15 16 14 9 7 6 6 9 9 13 7 4 7 -1 3 5 -0 5 3 8 6 -4 3 6 3 5 7 5 2
14 13 12 11 10 9 10 12 14 16 16 14 12 10 9 9 10 10 11 11 11 10 10 9 9 10 9 9 10 11 11 11 10 9 8 9 9 11 10 10 10 9 9 11 11 9 7 7 8 7 5 3 2 3 3 3 6 7 8 12 16 19 17 13 10 10 14 21 18 -7 -7 16 11 2 3 7 9 10 21 17 3 2 4 4 2 4 6 3
16 16 16 17 16 14 12 10 10 11 14 16 16 14 12 10 9 9 9 10 11 11 10 9 9 10 10 9 8 9 12 12 10 9 8 9 8 9 10 10 11 11 9 9 10 10 10 8 7 8 8 5 2 3 4 5 4 4 7 10 13 16 19 21 19 16 10 18 22 -7 -14 6 10 4 -2 13 22 13 18 17 6 5 5 8 11 6 -0 3
16 17 18 19 19 19 18 16 13 11 10 11 13 15 15 13 10 9 9 9 10 10 11 10 9 9 10 9 9 8 8 12 13 10 10 10 9 8 9 10 11 11 11 11 10 9 11 10 8 8 8 8 6 3 2 4 6 4 4 6 10 12 13 18 22 20 6 -0 1 -3 -4 -12 -5 12 -0 9 26 11 12 17 8 7 3 -1 17 30 16 3
18 19 19 19 19 19 19 20 19 17 14 11 10 11 14 15 14 11 9 9 9 9 9 10 11 11 10 8 10 8 6 12 13 11 11 10 9 8 7 9 11 11 10 11 12 11 10 10 10 9 8 9 8 6 2 2 5 4 3 3 6 8 10 11 12 18 16 3 -8 -6 9 3 1 17 12 14 19 3 7 16 8 8 8 -8 -10 13 29 25
18 16 16 14 14 14 14 16 17 18 18 17 14 11 11 12 14 14 12 10 9 9 8 9 10 11 11 8 8 8 7 13 12 7 10 10 9 9 6 8 10 11 10 10 13 12 10 10 11 12 10 9 9 8 4 2 4 4 4 4 3 4 7 9 6 9 13 9 4 2 13 26 21 14 15 15 8 -1 3 11 11 6 9 7 -10 -16 4 22
11 9 8 8 8 8 8 9 10 11 13 15 15 14 13 12 12 14 14 12 10 10 9 9 9 10 12 10 9 7 5 11 12 5 7 11 12 12 10 8 8 9 10 10 11 12 13 12 11 13 12 10 8 9 7 3 4 3 4 6 5 3 4 7 5 5 7 5 9 10 7 15 15 7 8 7 5 6 5 7 11 8 5 11 9 -3 -10 -8
7 6 7 9 9 11 12 12 13 13 13 13 14 13 12 11 12 13 14 14 12 11 10 10 9 9 11 11 9 7 7 11 14 9 6 12 15 13 11 10 8 9 10 11 11 12 14 14 12 12 11 11 9 9 9 5 3 2 3 5 5 3 2 4 5 5 5 2 3 9 7 4 3 5 4 1 5 8 7 8 8 10 11 6 7 11 4 -7
8 10 13 13 14 15 16 16 16 16 16 17 17 17 16 13 11 10 12 14 14 12 10 11 10 9 10 11 9 8 12 11 12 11 2 9 19 15 12 11 9 10 11 12 13 13 13 13 13 10 10 13 11 9 10 7 3 2 2 4 5 4 3 2 4 4 2 1 2 4 6 3 2 5 4 1 6 7 6 9 8 9 11 7 5 9 9 3
13 15 14 13 13 13 13 13 13 15 16 17 18 19 20 19 16 12 9 11 14 14 12 11 11 11 11 12 10 11 18 12 11 14 -1 1 17 16 13 12 10 9 8 10 12 15 15 12 11 12 12 13 11 9 11 11 6 4 2 3 4 4 4 2 2 4 2 1 2 2 1 -0 3 8 4 0 4 7 7 8 9 10 9 8 8 10 11 6
16 14 10 8 7 9 10 9 9 13 16 20 20 20 21 22 24 20 13 8 10 12 13 13 11 13 13 12 10 10 17 13 9 13 5 2 12 13 12 11 12 11 8 8 9 12 17 16 11 9 10 10 14 12 7 8 8 5 3 3 4 3 4 4 2 1 2 2 2 4 1 -2 5 7 1 2 5 6 6 8 8 9 10 10 9 11 13 11
14 10 5 -0 3 10 10 6 6 8 11 14 15 18 19 20 25 27 23 14 11 10 10 13 13 14 14 9 10 10 12 16 13 13 11 8 11 14 13 11 11 12 11 9 7 7 12 18 16 10 10 11 13 13 7 6 6 4 3 3 3 2 2 3 4 3 2 3 2 4 3 -0 5 5 -0 3 5 4 4 6 9 8 9 10 9 8 8 12
11 7 1 -2 5 12 9 6 4 2 7 12 14 16 21 25 27 30 30 21 16 13 9 11 12 15 15 6 8 14 15 20 17 11 10 9 10 13 14 12 10 9 10 10 9 8 6 11 17 15 13 9 8 13 12 8 5 2 2 2 1 2 1 1 4 5 3 3 4 4 4 4 5 4 4 4 2 4 4 4 8 9 10 9 8 7 5 10
7 4 0 1 10 13 9 4 -2 2 18 31 34 33 35 37 37 36 36 28 20 16 11 10 12 14 13 7 9 15 16 17 15 10 10 11 11 10 11 13 12 10 9 10 9 9 8 7 10 15 14 9 9 11 9 8 8 5 4 3 2 1 1 2 1 3 4 3 5 5 4 6 5 2 5 5 3 5 5 3 5 8 9 10 11 11 11 12
5 4 4 8 15 12 5 3 9 26 43 49 47 46 46 42 40 39 36 32 25 19 15 12 14 13 9 8 11 14 14 13 15 13 9 10 10 10 9 11 13 12 9 10 8 6 10 10 9 11 12 9 7 4 4 10 13 9 7 5 3 2 1 2 1 3 5 3 5 6 4 6 4 3 5 4 3 4 5 4 3 5 6 7 8 11 16 15
8 8 10 16 16 6 7 22 37 50 56 50 38 36 42 37 29 31 34 35 29 23 21 18 16 12 6 5 4 7 11 12 16 16 14 11 10 11 10 9 11 12 8 7 9 7 7 10 10 5 5 9 8 8 11 14 12 8 9 8 6 5 3 1 2 3 7 4 4 6 5 5 3 3 6 4 4 4 5 8 5 7 10 10 8 9 14 15
9 10 16 20 10 7 29 46 47 54 56 40 21 19 31 35 25 19 25 33 34 29 24 23 20 11 9 9 5 7 10 10 10 9 14 15 12 12 10 9 9 10 10 7 8 11 9 8 6 3 9 15 12 12 14 12 9 7 9 11 8 8 6 5 4 3 8 6 3 5 6 8 4 3 5 2 4 6 5 9 9 10 11 11 11 11 11 12
9 11 21 18 4 17 47 46 29 42 53 31 13 12 15 24 28 24 21 22 27 32 30 31 26 12 12 14 7 9 9 9 9 5 7 11 14 15 11 10 7 7 13 13 9 9 10 8 5 8 14 16 12 11 12 11 9 7 8 10 10 10 8 9 8 5 8 10 6 3 5 12 9 5 8 3 2 9 9 10 12 9 8 8 8 10 10 11
11 16 22 8 -0 24 46 34 13 20 34 24 15 15 11 12 18 21 28 26 20 22 26 35 33 14 14 18 9 8 9 9 15 19 18 11 11 16 15 12 9 9 13 13 9 3 3 7 8 11 13 13 13 9 10 10 8 7 7 7 10 11 10 11 12 8 6 8 10 6 4 13 14 9 12 7 2 8 8 6 5 -1 -1 6 7 11 14 12
15 22 18 -3 2 29 31 19 16 14 15 19 21 21 22 20 15 14 23 30 28 23 20 29 37 21 14 21 15 9 10 6 7 14 22 20 11 13 16 13 10 11 11 9 7 5 6 9 9 11 12 13 12 8 10 10 9 9 6 6 7 8 11 10 10 12 8 4 7 6 4 9 11 9 12 11 6 6 7 7 6 4 6 9 7 10 13 11
18 23 9 -6 9 31 19 4 20 26 11 9 14 15 17 16 17 19 15 20 33 35 24 20 30 24 14 23 21 12 10 8 5 3 10 20 17 12 14 14 12 9 9 10 10 11 11 12 11 10 12 13 9 8 9 9 9 8 7 9 7 7 14 14 13 16 10 3 5 7 5 6 7 5 8 13 13 6 6 9 6 7 11 8 7 10 11 14
22 21 5 -1 12 28 24 8 16 30 19 7 8 11 13 7 9 19 14 18 33 37 33 26 28 21 11 26 28 13 9 7 7 6 6 13 16 16 15 14 13 8 7 10 10 12 9 9 12 11 10 10 9 8 9 9 8 8 9 9 9 7 7 18 22 15 6 1 6 8 -1 -3 4 6 7 14 17 10 9 18 14 6 6 6 10 14 10 12
23 21 6 2 13 24 25 13 9 18 15 9 9 9 12 12 17 21 15 26 36 29 32 35 35 22 6 24 35 21 16 9 3 7 9 10 11 14 16 15 13 8 8 10 10 11 8 6 10 11 11 10 11 11 11 11 6 8 9 7 15 9 -2 17 23 9 7 3 5 9 -5 -7 8 16 18 15 14 11 7 12 12 5 7 8 10 14 9 5
21 19 8 3 13 23 22 11 5 10 11 13 19 18 21 34 45 32 16 34 39 21 30 39 40 35 12 17 34 26 21 13 4 8 9 12 13 11 12 14 13 11 10 9 8 8 7 7 7 9 13 12 14 13 11 10 6 11 11 10 20 13 10 26 9 -8 5 12 17 17 3 5 16 17 16 11 9 9 0 -4 1 4 6 6 7 12 12 7
19 18 12 6 9 21 25 15 5 6 10 10 14 14 18 37 56 43 24 36 28 10 32 43 37 41 22 13 29 29 22 17 13 14 12 14 17 13 12 14 12 12 11 8 6 8 9 9 7 8 12 13 14 11 10 10 8 13 13 13 15 10 27 31 -7 -16 4 10 9 -0 -4 7 5 -2 2 3 1 1 3 6 10 9 6 5 8 12 17 17
18 18 13 8 8 17 23 19 8 1 2 5 11 13 9 14 29 30 20 22 12 1 20 35 35 44 36 25 28 23 20 22 18 14 13 12 16 16 14 17 16 9 11 13 8 7 11 10 7 10 12 14 13 9 11 9 9 15 13 15 10 4 24 15 -16 -6 10 8 2 -11 -3 3 -9 -5 7 7 0 -1 10 15 9 5 4 7 10 12 20 19
15 20 16 7 7 16 21 19 9 -3 1 7 10 13 12 10 9 9 7 6 9 11 13 24 33 36 39 41 30 16 21 27 20 15 14 9 14 19 11 15 20 9 7 14 9 4 9 8 9 12 11 14 13 8 11 9 9 16 15 14 6 5 17 0 -13 5 10 10 10 0 5 -1 -10 4 12 8 3 2 4 -4 -6 4 9 13 13 13 19 13
14 21 20 9 3 13 19 19 10 0 7 9 4 6 10 13 10 7 9 6 14 27 21 22 26 20 33 46 30 17 24 27 21 20 18 7 9 16 11 12 20 13 4 7 8 6 4 6 12 13 10 13 13 8 9 10 10 14 16 11 -1 7 19 -3 -9 7 7 10 13 5 5 1 4 13 12 11 8 5 -1 -14 -7 5 6 13 15 15 19 14
15 22 24 14 3 8 14 19 12 2 6 5 2 6 5 8 10 8 14 11 11 18 14 18 19 11 30 43 28 23 24 22 23 22 17 9 7 11 10 13 17 16 7 -0 4 7 1 3 9 10 10 10 11 12 8 9 14 13 13 9 -2 9 20 -2 -10 3 8 14 15 11 11 11 19 22 19 20 14 12 11 -0 4 6 -0 10 15 14 18 16
15 23 26 17 7 7 8 14 16 7 5 1 -2 3 3 5 8 8 14 16 11 10 11 15 10 2 23 39 31 24 19 18 26 26 17 11 9 8 8 15 18 14 13 6 4 8 5 5 8 8 13 12 9 13 9 9 16 13 11 12 1 6 14 -2 -10 -1 3 7 7 12 20 15 11 17 20 17 12 18 19 6 6 10 4 5 8 11 15 16
16 24 25 19 16 13 3 2 11 12 10 8 3 1 1 4 9 8 8 9 9 11 10 11 9 5 22 42 37 19 9 12 22 26 23 12 9 9 5 15 21 11 13 15 7 8 6 3 9 9 10 13 10 9 9 7 10 15 23 24 8 5 11 -1 -11 -8 -6 1 6 8 16 12 -2 2 10 8 10 19 18 8 6 16 18 8 6 14 15 15
20 24 19 16 19 23 18 6 4 9 13 17 15 11 9 11 13 7 5 6 4 7 8 15 25 19 20 37 34 14 5 11 17 21 27 17 6 10 7 12 22 12 9 13 6 9 8 3 14 16 12 20 17 8 10 10 13 20 21 14 7 8 7 -9 -14 -6 -12 -10 6 6 7 13 4 0 5 3 8 16 16 12 3 4 15 13 9 11 11 14
19 19 16 13 12 21 31 23 11 7 7 12 17 17 14 12 11 6 12 17 6 7 19 30 35 24 22 34 31 17 5 8 18 19 28 26 8 10 11 9 20 16 8 9 4 8 8 1 10 11 8 20 17 8 8 10 17 21 6 -6 1 13 10 -14 -17 11 11 -10 -1 9 4 9 5 1 10 11 10 14 12 9 4 2 7 10 9 7 7 11
16 13 12 12 9 10 21 27 23 12 6 10 13 15 14 12 10 2 5 11 2 6 24 28 23 21 29 31 27 20 2 3 20 17 26 33 11 10 14 7 14 16 11 9 4 11 10 5 18 15 9 21 24 18 12 4 11 18 11 4 1 12 29 11 -16 4 27 6 -4 5 -2 2 10 1 3 12 13 14 10 3 3 10 12 9 11 13 10 10
16 13 8 9 9 7 10 20 26 18 8 5 5 12 19 15 9 -1 -2 4 6 17 28 22 19 28 34 25 22 23 4 5 20 12 25 36 14 11 13 4 10 16 21 13 3 16 13 7 29 31 21 23 21 23 15 3 12 21 18 7 -7 0 25 29 1 -14 8 16 5 9 -0 -6 10 6 -4 4 7 7 13 17 16 13 10 8 12 15 12 12
19 19 10 11 12 10 11 12 19 22 15 9 12 24 27 17 11 10 10 12 17 29 28 17 18 27 26 16 21 22 3 7 20 11 24 33 15 14 12 4 10 16 25 14 -1 14 10 -0 20 28 25 16 2 12 13 6 19 21 12 1 -7 4 11 20 27 3 -4 11 4 5 8 -6 -4 2 -4 -8 -11 -8 1 6 8 8 6 5 4 5 7 11
18 20 12 16 15 13 17 14 13 20 20 20 28 35 24 9 13 22 21 20 31 38 24 13 19 23 19 16 24 21 -2 4 22 13 20 30 16 14 12 6 10 10 15 12 -1 1 -2 -1 14 18 21 11 -3 8 4 5 24 15 7 3 -12 -1 2 -5 23 27 11 16 4 -13 -6 -1 -4 -6 -4 -2 -4 -0 -1 -13 -10 7 14 10 3 2 6 9
17 19 12 16 16 8 11 16 16 20 24 21 24 33 25 10 17 28 23 23 36 37 19 17 27 20 14 18 23 19 -2 3 23 12 17 34 19 13 15 4 6 16 18 11 -1 -3 1 6 7 10 15 -1 -4 16 3 1 28 14 7 19 -1 -5 5 -10 0 21 20 25 27 7 -10 2 16 6 -1 11 14 9 6 2 4 7 2 -3 -2 1 4 3
14 20 11 12 17 9 7 12 11 16 24 19 18 32 33 26 30 28 18 17 23 24 19 25 28 10 9 22 23 15 3 12 26 8 16 38 20 16 23 -0 2 24 17 2 -6 -2 12 7 -7 11 33 14 9 34 19 2 21 12 -2 23 22 -1 -4 -7 -9 6 15 16 30 37 11 -3 17 26 10 2 6 10 12 15 12 0 -12 -12 -4 2 7 8
12 21 12 5 6 7 10 10 4 5 14 19 23 28 27 27 31 27 21 16 14 19 22 24 19 4 14 28 15 -1 -0 21 28 5 18 41 19 18 28 1 2 14 -1 1 5 -1 13 8 -9 11 39 39 35 34 16 -1 10 14 -6 6 33 16 -9 -9 -10 -3 16 15 16 34 28 -3 -9 15 22 2 -4 7 12 14 16 9 2 2 5 5 6 11
11 16 11 6 3 6 13 13 15 18 18 25 26 15 10 14 20 26 28 23 23 27 22 20 18 12 25 30 4 -13 0 28 29 4 21 43 18 19 28 2 2 3 -14 5 14 0 12 12 -1 6 10 25 36 10 -9 -5 6 20 8 -5 20 31 10 -3 -13 -13 5 11 10 22 33 22 -2 -5 8 3 -2 4 3 7 17 20 20 21 18 9 3 6
11 13 13 12 7 10 14 11 23 30 20 21 21 6 4 9 8 16 23 24 27 19 12 23 24 16 23 18 -2 -5 7 25 23 1 19 43 26 22 23 3 10 5 -15 5 14 2 14 9 -3 3 -5 7 29 2 -17 -3 2 11 14 -1 4 21 19 7 -9 -13 -4 -0 5 11 18 27 19 8 11 9 6 8 3 1 7 12 18 22 16 9 5 5
10 13 12 11 7 11 14 5 13 27 19 17 17 3 3 16 20 18 17 16 13 7 17 32 22 13 17 7 2 12 13 17 18 2 12 38 38 29 13 0 12 2 -17 9 20 6 14 12 2 9 6 13 38 28 2 -6 -3 10 16 4 -2 5 16 19 4 -5 1 4 3 1 0 9 14 15 19 19 14 17 19 15 12 10 7 8 12 16 15 11
8 12 10 13 10 10 16 6 1 18 22 20 23 9 2 25 35 22 15 16 14 18 28 26 14 13 12 6 11 17 9 11 17 7 5 24 41 36 10 -7 -3 -9 -8 18 22 6 10 12 6 12 11 10 32 47 27 -6 -15 6 18 8 -4 -3 9 20 11 -3 -1 6 4 -4 -11 -7 5 9 9 10 12 16 20 21 19 18 12 5 5 6 4 5
7 12 8 13 16 13 19 11 -5 7 15 14 28 23 8 21 25 10 15 24 23 22 19 17 20 14 8 15 14 3 3 12 14 9 5 19 41 37 11 -0 -11 -24 -6 18 11 3 12 14 11 12 8 5 17 38 43 26 3 -5 2 4 -3 -4 2 8 9 5 4 7 10 11 4 -7 -3 3 -0 2 5 2 5 13 18 25 28 24 19 12 5 6
7 11 5 11 23 19 15 7 -2 11 21 17 27 25 12 13 6 -2 12 20 16 14 12 18 18 2 6 21 6 -2 15 16 8 12 10 18 39 30 7 12 4 -19 -4 19 7 -2 10 16 12 4 -4 2 13 13 17 34 36 13 -3 -2 -4 -6 -3 2 8 10 11 9 5 9 14 7 0 -2 -7 -6 1 3 3 3 -1 -2 3 10 15 16 16 18
5 9 5 6 17 15 11 13 10 16 25 24 21 17 18 24 16 11 17 13 9 11 12 17 7 -7 8 17 -0 7 23 15 16 25 11 6 28 28 3 1 7 -4 1 17 10 0 7 15 18 12 -1 -2 11 10 0 10 35 40 22 7 4 -1 -10 -6 5 8 7 11 8 2 5 9 9 7 2 -4 -6 -3 -0 -2 -4 -3 -2 -1 2 4 4 5
5 9 8 3 9 13 14 19 13 5 12 19 14 9 18 29 26 25 25 15 10 8 12 20 6 -5 13 18 5 10 11 11 24 22 4 2 22 31 6 -16 -1 10 4 7 10 2 1 6 15 18 6 -1 7 14 7 -3 7 32 37 23 17 14 1 -9 -5 3 5 6 11 9 3 4 5 6 12 15 9 4 3 4 5 7 6 1 -0 5 6 3
9 11 8 1 10 18 16 15 8 -2 2 10 11 15 25 28 23 20 20 17 10 -0 7 20 2 -9 11 14 5 10 7 8 18 11 6 13 25 34 10 -22 -6 15 6 6 10 2 -2 -1 2 1 -4 5 14 9 6 2 -3 14 32 30 20 13 10 3 -11 -10 -1 -0 3 5 -1 -1 1 -4 -2 6 9 9 7 6 8 11 16 18 14 11 11 11
Height
5712 5711 5710 5709 5708 5707 5706 5706 5705 5705 5705 5705 5705 5705 5706 5706 5707 5707 5708 5709 5710 5712 5713 5715 5716 5718 5720 5722 5725 5728 5731 5734 5737 5741 5746 5749 5750 5754 5758 5761 5764 5768 5772 5775 5778 5780 5784 5788 5790 5793 5795 5798 5801 5804 5806 5808 5811 5813 5813 5815 5817 5820 5825 5829 5832 5836 5839 5842 5846 5847 5846 5848 5850 5847 5848 5851 5851 5852 5854 5855 5854 5854 5855 5857 5857 5855 5857 5858
5706 5705 5703 5702 5701 5701 5700 5699 5698 5698 5698 5697 5697 5698 5698 5699 5700 5700 5701 5702 5703 5705 5706 5708 5709 5711 5713 5715 5718 5722 5725 5728 5731 5736 5740 5741 5744 5748 5752 5756 5759 5762 5766 5769 5772 5775 5779 5783 5785 5787 5790 5793 5797 5800 5801 5804 5806 5808 5810 5811 5814 5818 5823 5828 5830 5834 5836 5839 5843 5844 5843 5844 5844 5842 5843 5848 5849 5847 5849 5851 5852 5853 5853 5854 5855 5853 5854 5855
5699 5698 5697 5696 5695 5694 5693 5693 5692 5691 5691 5690 5690 5690 5691 5691 5692 5693 5694 5695 5696 5698 5699 5701 5702 5704 5706 5709 5712 5715 5719 5721 5725 5730 5732 5734 5738 5742 5745 5750 5753 5755 5759 5763 5767 5770 5773 5777 5779 5782 5785 5788 5792 5795 5797 5799 5801 5803 5806 5807 5812 5817 5820 5825 5827 5830 5833 5836 5841 5841 5839 5840 5839 5839 5841 5845 5846 5844 5846 5850 5851 5851 5850 5851 5851 5851 5852 5852
5693 5691 5690 5689 5688 5687 5686 5685 5685 5684 5684 5683 5683 5683 5683 5684 5684 5685 5686 5688 5689 5691 5692 5694 5695 5697 5699 5702 5705 5709 5712 5715 5719 5722 5724 5727 5731 5735 5739 5743 5747 5750 5753 5758 5762 5765 5768 5771 5774 5777 5780 5784 5788 5790 5793 5795 5798 5800 5802 5805 5811 5815 5817 5822 5824 5827 5831 5835 5839 5836 5833 5833 5833 5838 5840 5840 5843 5842 5844 5848 5848 5847 5846 5846 5847 5848 5849 5849
5686 5685 5683 5682 5680 5679 5678 5677 5677 5677 5676 5677 5676 5676 5676 5676 5677 5677 5679 5680 5681 5684 5685 5687 5688 5690 5692 5695 5699 5702 5706 5709 5712 5716 5718 5721 5725 5729 5733 5737 5741 5745 5748 5752 5757 5760 5763 5766 5769 5772 5775 5780 5783 5786 5790 5793 5795 5797 5800 5805 5809 5811 5813 5818 5821 5825 5830 5833 5834 5831 5830 5827 5828 5836 5835 5835 5840 5841 5844 5846 5843 5842 5842 5842 5843 5845 5846 5847
5680 5678 5676 5675 5674 5672 5671 5670 5669 5668 5668 5668 5668 5669 5668 5668 5669 5669 5671 5672 5674 5676 5677 5680 5681 5683 5685 5688 5692 5696 5700 5702 5705 5709 5712 5715 5718 5723 5727 5731 5735 5739 5742 5747 5751 5754 5758 5761 5763 5768 5771 5775 5779 5783 5788 5790 5792 5794 5798 5803 5806 5808 5810 5814 5818 5821 5824 5827 5828 5827 5827 5823 5825 5832 5830 5832 5838 5840 5843 5841 5838 5837 5839 5841 5842 5843 5844 5845
5672 5671 5669 5668 5666 5665 5664 5663 5662 5661 5660 5659 5660 5660 5660 5661 5660 5661 5663 5664 5666 5667 5670 5672 5673 5676 5678 5681 5685 5689 5693 5696 5699 5703 5706 5710 5713 5717 5721 5725 5729 5733 5737 5741 5745 5749 5753 5756 5759 5764 5767 5771 5775 5780 5784 5787 5789 5791 5795 5800 5803 5805 5807 5811 5815 5816 5817 5819 5821 5821 5823 5821 5823 5829 5827 5830 5836 5837 5839 5837 5835 5833 5835 5841 5841 5840 5840 5839
5665 5663 5662 5660 5659 5657 5656 5655 5654 5653 5652 5652 5651 5651 5651 5652 5652 5653 5654 5656 5658 5659 5662 5664 5666 5669 5671 5675 5678 5682 5688 5689 5691 5695 5699 5704 5707 5711 5715 5719 5723 5727 5731 5735 5739 5744 5747 5751 5755 5759 5762 5767 5771 5776 5780 5783 5785 5787 5792 5797 5800 5803 5805 5809 5811 5812 5814 5814 5815 5817 5819 5820 5824 5827 5825 5829 5833 5833 5835 5835 5833 5830 5832 5838 5839 5837 5836 5834
5659 5657 5655 5654 5652 5650 5649 5648 5647 5646 5645 5644 5643 5643 5643 5643 5644 5644 5645 5647 5649 5651 5654 5655 5658 5660 5664 5668 5670 5678 5683 5679 5681 5687 5692 5698 5702 5705 5709 5713 5717 5721 5725 5729 5733 5738 5742 5746 5750 5753 5757 5762 5767 5771 5775 5778 5781 5785 5789 5794 5797 5800 5802 5806 5807 5809 5810 5811 5813 5816 5818 5821 5824 5825 5823 5826 5830 5831 5832 5833 5831 5829 5829 5833 5836 5836 5836 5835
5653 5651 5649 5647 5645 5643 5642 5640 5639 5638 5637 5636 5635 5635 5634 5634 5635 5636 5637 5639 5640 5642 5644 5647 5650 5652 5657 5660 5665 5675 5673 5668 5676 5684 5688 5694 5698 5701 5703 5707 5711 5716 5720 5724 5728 5732 5737 5742 5745 5749 5752 5757 5761 5766 5770 5773 5779 5782 5786 5790 5793 5796 5799 5802 5804 5806 5807 5807 5811 5815 5818 5821 5822 5822 5820 5823 5827 5829 5830 5830 5830 5828 5827 5830 5833 5835 5835 5835
5648 5645 5643 5641 5638 5636 5634 5632 5631 5629 5628 5628 5627 5626 5626 5625 5626 5627 5628 5630 5631 5633 5635 5638 5641 5645 5649 5652 5662 5668 5662 5664 5674 5678 5683 5690 5693 5696 5699 5702 5707 5711 5715 5719 5723 5728 5733 5737 5740 5743 5747 5751 5756 5761 5765 5770 5775 5778 5781 5786 5789 5792 5795 5799 5801 5802 5804 5804 5808 5812 5815 5818 5819 5818 5819 5821 5824 5826 5826 5827 5828 5827 5826 5827 5830 5833 5834 5833
5642 5639 5637 5634 5631 5629 5626 5624 5622 5620 5619 5618 5617 5617 5617 5616 5617 5617 5619 5621 5622 5624 5626 5629 5632 5637 5641 5646 5658 5658 5653 5661 5667 5669 5678 5684 5687 5691 5694 5698 5702 5707 5711 5715 5719 5723 5727 5731 5734 5737 5742 5747 5752 5757 5762 5767 5771 5774 5777 5780 5784 5788 5791 5795 5797 5799 5800 5801 5805 5809 5811 5815 5815 5816 5817 5819 5820 5823 5824 5825 5826 5826 5824 5825 5828 5831 5832 5831
5636 5633 5630 5627 5625 5622 5619 5616 5613 5611 5609 5607 5607 5606 5606 5606 5606 5607 5609 5611 5613 5615 5617 5620 5624 5629 5633 5643 5653 5648 5646 5654 5658 5663 5672 5677 5680 5684 5689 5693 5697 5702 5706 5710 5715 5718 5722 5726 5729 5734 5738 5743 5747 5753 5758 5763 5766 5770 5772 5775 5780 5783 5786 5791 5793 5795 5797 5799 5803 5806 5809 5812 5813 5813 5815 5816 5817 5820 5821 5823 5824 5824 5823 5823 5825 5828 5829 5829
5631 5627 5624 5621 5618 5614 5611 5608 5604 5602 5599 5597 5595 5594 5594 5595 5595 5597 5599 5601 5602 5605 5608 5611 5616 5621 5627 5640 5643 5636 5639 5647 5652 5659 5665 5670 5675 5677 5682 5686 5690 5696 5701 5705 5709 5713 5717 5721 5725 5729 5734 5739 5743 5748 5752 5756 5761 5766 5768 5770 5775 5778 5782 5787 5789 5791 5794 5797 5801 5804 5807 5809 5809 5811 5812 5813 5815 5817 5818 5820 5821 5821 5821 5821 5822 5825 5827 5828
5625 5622 5619 5615 5611 5607 5603 5599 5595 5591 5588 5585 5583 5582 5582 5582 5584 5585 5587 5589 5591 5595 5599 5603 5608 5612 5621 5633 5631 5627 5634 5642 5648 5654 5657 5662 5669 5671 5676 5680 5684 5689 5695 5700 5704 5708 5712 5716 5720 5724 5729 5734 5738 5743 5747 5750 5755 5759 5761 5764 5769 5773 5778 5783 5786 5789 5792 5796 5799 5802 5804 5805 5807 5807 5809 5812 5814 5815 5815 5817 5818 5819 5819 5819 5820 5821 5825 5827
5620 5617 5613 5609 5604 5599 5595 5590 5585 5581 5577 5573 5570 5569 5568 5569 5571 5572 5574 5577 5580 5585 5590 5594 5599 5605 5616 5623 5620 5622 5630 5636 5640 5644 5648 5655 5662 5666 5670 5674 5679 5683 5689 5694 5698 5702 5706 5710 5715 5720 5725 5729 5733 5739 5743 5745 5749 5752 5755 5759 5765 5769 5774 5779 5783 5787 5790 5793 5797 5799 5801 5803 5804 5804 5806 5810 5811 5812 5813 5814 5815 5816 5816 5817 5817 5819 5822 5825
5615 5612 5607 5603 5597 5592 5587 5582 5576 5571 5565 5560 5557 5556 5556 5556 5558 5559 5562 5564 5569 5574 5580 5585 5590 5598 5610 5612 5611 5616 5623 5627 5631 5637 5643 5649 5656 5660 5664 5670 5674 5678 5683 5687 5691 5697 5701 5704 5709 5714 5719 5724 5729 5734 5737 5740 5744 5747 5751 5756 5761 5765 5770 5775 5781 5785 5787 5791 5794 5797 5799 5800 5800 5800 5804 5807 5808 5810 5811 5811 5812 5813 5814 5814 5815 5817 5820 5822
5611 5607 5602 5597 5592 5586 5581 5574 5567 5560 5553 5549 5546 5545 5545 5545 5546 5548 5550 5553 5558 5564 5571 5576 5581 5592 5600 5599 5602 5609 5615 5620 5626 5631 5637 5643 5649 5654 5659 5665 5668 5672 5677 5681 5686 5691 5695 5700 5704 5709 5714 5719 5724 5728 5731 5736 5741 5744 5748 5753 5758 5762 5766 5772 5778 5782 5785 5789 5792 5794 5797 5798 5797 5797 5801 5805 5805 5807 5807 5808 5810 5810 5811 5812 5813 5816 5817 5818
5607 5603 5598 5593 5587 5581 5574 5565 5557 5549 5544 5541 5539 5538 5537 5537 5538 5539 5540 5544 5549 5556 5561 5565 5571 5583 5587 5588 5595 5603 5608 5614 5619 5624 5630 5636 5642 5647 5653 5658 5661 5666 5670 5675 5681 5686 5690 5695 5699 5704 5710 5716 5720 5724 5729 5734 5738 5742 5747 5752 5756 5760 5764 5770 5777 5781 5783 5786 5790 5791 5793 5795 5795 5796 5798 5801 5803 5804 5804 5806 5807 5808 5809 5810 5812 5813 5815 5815
5603 5598 5593 5588 5583 5576 5567 5557 5549 5542 5537 5536 5536 5535 5533 5532 5532 5534 5535 5538 5543 5547 5551 5555 5564 5574 5577 5581 5590 5596 5600 5605 5610 5617 5624 5631 5636 5641 5647 5651 5655 5660 5665 5672 5677 5682 5686 5690 5695 5703 5709 5714 5718 5722 5726 5731 5736 5741 5745 5750 5755 5758 5763 5768 5775 5780 5781 5782 5787 5790 5790 5791 5792 5794 5796 5797 5799 5801 5802 5803 5804 5806 5807 5808 5810 5811 5812 5812
5599 5594 5589 5584 5578 5570 5560 5552 5545 5539 5535 5534 5534 5533 5531 5529 5529 5530 5532 5535 5538 5540 5544 5548 5556 5565 5569 5575 5583 5588 5594 5600 5606 5612 5618 5624 5630 5635 5641 5646 5650 5656 5663 5669 5673 5678 5682 5687 5697 5704 5707 5711 5715 5719 5723 5728 5733 5738 5742 5747 5752 5756 5761 5766 5773 5779 5779 5778 5783 5787 5789 5788 5788 5791 5793 5794 5796 5798 5799 5800 5801 5803 5805 5806 5808 5808 5809 5809
5595 5589 5585 5579 5573 5565 5556 5549 5544 5539 5536 5534 5533 5532 5530 5528 5528 5528 5528 5531 5534 5535 5538 5542 5547 5557 5563 5567 5573 5580 5589 5597 5604 5609 5614 5618 5624 5630 5636 5641 5647 5654 5659 5663 5667 5672 5678 5688 5696 5699 5701 5707 5712 5715 5719 5725 5730 5734 5739 5743 5748 5753 5759 5764 5769 5776 5777 5776 5779 5784 5787 5786 5784 5787 5790 5791 5792 5794 5796 5798 5799 5802 5803 5804 5805 5806 5806 5806
5591 5586 5581 5576 5569 5561 5554 5548 5544 5540 5537 5534 5532 5531 5529 5527 5526 5525 5525 5527 5530 5531 5533 5538 5542 5550 5556 5560 5565 5574 5583 5591 5597 5604 5610 5615 5621 5627 5631 5636 5644 5650 5653 5657 5663 5670 5677 5686 5690 5692 5697 5703 5707 5710 5716 5723 5727 5730 5735 5740 5744 5750 5756 5761 5765 5772 5775 5774 5777 5782 5784 5783 5782 5783 5785 5787 5788 5791 5794 5796 5798 5799 5801 5802 5803 5803 5803 5804
5588 5583 5578 5573 5566 5559 5553 5548 5544 5540 5537 5535 5533 5531 5529 5527 5525 5524 5523 5522 5526 5528 5529 5532 5536 5542 5551 5555 5559 5567 5577 5584 5590 5596 5604 5611 5617 5622 5627 5634 5640 5644 5649 5656 5662 5669 5676 5682 5684 5689 5695 5699 5702 5707 5713 5719 5723 5727 5733 5738 5742 5747 5753 5759 5764 5771 5773 5773 5776 5779 5779 5778 5778 5779 5781 5783 5785 5788 5792 5794 5795 5796 5798 5799 5799 5800 5801 5803
5585 5580 5576 5571 5565 5558 5552 5548 5544 5540 5538 5535 5533 5531 5528 5526 5524 5522 5521 5520 5523 5526 5525 5526 5531 5538 5546 5549 5552 5562 5571 5577 5585 5593 5601 5607 5612 5618 5624 5630 5634 5640 5647 5654 5659 5665 5671 5675 5681 5687 5690 5694 5699 5704 5710 5715 5720 5725 5730 5736 5741 5746 5750 5757 5764 5769 5770 5770 5773 5774 5774 5774 5776 5777 5778 5780 5782 5786 5790 5791 5792 5794 5795 5796 5798 5799 5800 5802
5582 5578 5574 5569 5563 5557 5552 5548 5545 5542 5539 5536 5533 5530 5527 5524 5522 5520 5519 5518 5520 5521 5520 5523 5528 5535 5541 5544 5550 5557 5564 5574 5584 5591 5597 5601 5607 5614 5619 5624 5630 5639 5646 5651 5656 5660 5665 5670 5678 5683 5687 5693 5697 5703 5708 5712 5716 5722 5728 5735 5741 5745 5748 5754 5762 5766 5766 5767 5770 5770 5771 5771 5773 5774 5775 5777 5780 5783 5786 5787 5789 5791 5792 5794 5797 5799 5799 5800
5580 5576 5572 5568 5563 5557 5552 5548 5545 5542 5539 5536 5533 5529 5525 5521 5518 5517 5517 5517 5518 5519 5519 5521 5525 5530 5538 5543 5546 5551 5562 5576 5582 5586 5593 5598 5602 5607 5611 5618 5628 5636 5642 5645 5650 5655 5661 5668 5674 5679 5685 5691 5695 5700 5705 5708 5714 5720 5728 5735 5740 5744 5747 5752 5760 5763 5764 5766 5767 5767 5769 5770 5770 5771 5773 5775 5778 5781 5783 5785 5787 5790 5791 5793 5796 5798 5797 5797
5578 5574 5570 5566 5562 5557 5552 5548 5545 5542 5539 5537 5533 5530 5526 5521 5517 5516 5516 5517 5518 5519 5520 5520 5522 5526 5533 5538 5541 5550 5564 5570 5573 5581 5590 5594 5598 5602 5608 5616 5625 5632 5637 5640 5646 5654 5660 5665 5671 5676 5680 5686 5692 5698 5703 5706 5712 5720 5728 5734 5739 5743 5746 5750 5755 5759 5762 5764 5763 5763 5765 5768 5768 5768 5770 5773 5775 5778 5780 5783 5785 5788 5790 5791 5794 5794 5793 5793
5576 5572 5569 5565 5562 5558 5553 5549 5545 5542 5539 5537 5534 5531 5528 5524 5521 5519 5519 5519 5520 5520 5520 5520 5520 5524 5529 5533 5539 5549 5555 5559 5567 5578 5583 5588 5594 5600 5608 5616 5622 5626 5631 5638 5645 5652 5656 5661 5668 5672 5677 5684 5690 5696 5701 5704 5711 5720 5727 5732 5737 5740 5744 5749 5751 5755 5758 5759 5759 5759 5762 5765 5765 5764 5766 5768 5772 5776 5778 5781 5783 5785 5788 5790 5791 5791 5791 5791
5574 5571 5567 5565 5561 5558 5554 5550 5546 5542 5539 5537 5535 5532 5529 5527 5525 5523 5522 5522 5522 5521 5521 5521 5521 5522 5525 5530 5537 5543 5547 5556 5566 5570 5575 5584 5591 5599 5606 5612 5616 5620 5626 5635 5642 5647 5654 5661 5665 5670 5676 5683 5689 5693 5698 5702 5710 5719 5725 5730 5735 5738 5742 5746 5748 5751 5753 5753 5755 5757 5761 5764 5763 5761 5761 5765 5770 5775 5777 5778 5781 5783 5786 5788 5788 5788 5789 5789
5573 5569 5566 5564 5561 5558 5555 5551 5547 5543 5540 5538 5535 5533 5530 5529 5527 5525 5524 5523 5523 5523 5522 5522 5523 5523 5524 5528 5533 5539 5547 5555 5559 5563 5570 5579 5586 5594 5601 5604 5610 5617 5623 5630 5637 5644 5652 5658 5662 5669 5676 5681 5686 5690 5695 5701 5709 5716 5720 5726 5732 5736 5739 5741 5743 5745 5745 5746 5751 5756 5760 5761 5759 5757 5760 5765 5769 5772 5773 5776 5779 5782 5784 5785 5785 5787 5787 5788
5572 5568 5565 5562 5560 5557 5554 5552 5548 5545 5541 5539 5536 5534 5532 5530 5528 5527 5525 5525 5525 5525 5524 5524 5525 5526 5526 5527 5530 5538 5546 5551 5554 5560 5568 5576 5583 5590 5596 5601 5608 5616 5623 5629 5636 5643 5649 5655 5661 5668 5673 5677 5681 5687 5693 5699 5705 5711 5716 5722 5728 5732 5735 5737 5739 5740 5740 5743 5747 5752 5756 5758 5756 5755 5759 5764 5767 5768 5770 5775 5777 5780 5782 5783 5784 5785 5786 5787
5571 5567 5564 5562 5559 5557 5554 5551 5549 5546 5543 5540 5537 5535 5533 5531 5530 5528 5527 5526 5526 5527 5527 5527 5527 5527 5527 5529 5532 5536 5543 5549 5554 5560 5568 5575 5583 5589 5595 5603 5609 5617 5626 5631 5635 5641 5647 5652 5658 5663 5668 5673 5678 5684 5689 5693 5699 5705 5710 5716 5722 5727 5730 5733 5736 5736 5739 5742 5745 5748 5753 5754 5754 5755 5757 5762 5764 5765 5768 5772 5774 5777 5779 5780 5782 5783 5784 5784
5571 5567 5564 5561 5559 5556 5553 5551 5548 5546 5543 5541 5538 5536 5534 5532 5531 5529 5528 5527 5527 5527 5528 5528 5528 5528 5528 5530 5532 5534 5541 5549 5554 5559 5566 5572 5579 5586 5592 5600 5607 5616 5625 5631 5634 5639 5644 5648 5652 5659 5666 5671 5677 5682 5687 5693 5698 5704 5708 5712 5718 5723 5727 5731 5733 5734 5738 5741 5743 5747 5750 5752 5753 5753 5754 5758 5761 5762 5764 5768 5772 5774 5775 5777 5780 5781 5781 5782
5570 5567 5564 5561 5558 5555 5553 5550 5548 5545 5543 5540 5538 5536 5534 5532 5531 5530 5529 5528 5528 5527 5528 5527 5527 5528 5529 5530 5533 5535 5540 5548 5554 5558 5564 5570 5577 5584 5591 5599 5608 5615 5621 5628 5634 5639 5644 5648 5653 5660 5665 5670 5676 5680 5687 5693 5698 5703 5708 5711 5715 5720 5725 5730 5732 5733 5736 5738 5741 5745 5748 5749 5751 5752 5753 5756 5758 5758 5761 5765 5770 5772 5773 5775 5777 5778 5779 5780
5570 5567 5563 5560 5557 5555 5552 5549 5547 5544 5542 5540 5538 5535 5533 5532 5530 5530 5529 5529 5528 5527 5527 5526 5527 5528 5530 5531 5534 5538 5541 5547 5554 5559 5564 5572 5578 5585 5593 5601 5610 5616 5621 5627 5634 5639 5644 5650 5655 5660 5664 5669 5675 5680 5685 5691 5695 5701 5705 5708 5713 5718 5723 5727 5730 5731 5733 5735 5739 5744 5745 5746 5748 5750 5752 5753 5754 5754 5757 5763 5769 5771 5772 5774 5776 5777 5777 5778
5571 5567 5563 5560 5557 5554 5552 5549 5546 5544 5542 5539 5537 5535 5533 5531 5530 5529 5529 5528 5528 5527 5527 5527 5527 5529 5531 5532 5535 5540 5543 5546 5553 5559 5564 5572 5579 5586 5593 5601 5609 5617 5624 5629 5635 5641 5646 5651 5656 5660 5664 5669 5676 5681 5686 5689 5694 5699 5703 5708 5713 5717 5720 5724 5728 5729 5730 5733 5738 5742 5743 5743 5746 5747 5748 5749 5750 5751 5755 5762 5767 5770 5772 5773 5774 5776 5776 5777
5571 5568 5564 5560 5558 5555 5552 5549 5546 5543 5541 5539 5537 5534 5532 5531 5529 5528 5528 5528 5527 5527 5527 5528 5528 5530 5532 5535 5538 5543 5546 5548 5553 5559 5565 5572 5579 5586 5593 5601 5609 5618 5625 5631 5637 5643 5648 5652 5656 5660 5664 5667 5671 5677 5683 5686 5691 5698 5704 5708 5711 5713 5717 5721 5723 5725 5727 5731 5736 5740 5740 5741 5743 5744 5745 5747 5749 5751 5755 5761 5766 5769 5771 5771 5772 5774 5775 5776
5572 5568 5565 5561 5558 5555 5552 5549 5545 5543 5540 5538 5535 5533 5532 5531 5530 5529 5528 5527 5527 5527 5528 5529 5530 5531 5534 5537 5540 5545 5549 5552 5556 5560 5566 5573 5580 5588 5594 5601 5610 5618 5625 5632 5637 5643 5648 5651 5654 5657 5662 5666 5668 5673 5679 5683 5688 5695 5703 5707 5708 5711 5715 5718 5720 5723 5726 5729 5733 5737 5739 5738 5739 5742 5744 5745 5747 5751 5756 5761 5764 5767 5768 5768 5770 5772 5773 5775
5573 5569 5566 5562 5559 5556 5552 5549 5546 5543 5540 5538 5535 5533 5532 5531 5530 5529 5528 5527 5527 5528 5529 5530 5531 5533 5537 5539 5542 5548 5552 5555 5559 5563 5568 5575 5582 5588 5594 5601 5609 5618 5625 5630 5636 5641 5646 5649 5653 5657 5661 5664 5666 5671 5676 5680 5684 5691 5697 5702 5705 5709 5713 5716 5719 5722 5725 5728 5731 5734 5737 5737 5738 5740 5742 5743 5745 5749 5754 5759 5763 5765 5765 5766 5768 5769 5771 5773
5574 5570 5567 5564 5561 5557 5553 5550 5547 5545 5542 5539 5537 5534 5532 5531 5531 5530 5529 5529 5528 5529 5530 5532 5534 5536 5539 5542 5545 5550 5555 5557 5561 5565 5570 5577 5583 5588 5595 5601 5609 5617 5624 5629 5633 5638 5643 5647 5651 5655 5658 5662 5666 5672 5677 5680 5684 5689 5693 5698 5702 5706 5710 5713 5716 5720 5723 5726 5728 5731 5736 5737 5737 5738 5740 5742 5743 5746 5750 5754 5759 5762 5763 5764 5766 5768 5770 5772
5575 5572 5568 5566 5563 5559 5555 5552 5549 5547 5544 5542 5539 5537 5534 5532 5532 5531 5531 5531 5531 5532 5533 5534 5537 5539 5542 5545 5548 5552 5557 5560 5564 5568 5572 5578 5584 5591 5598 5604 5611 5617 5622 5628 5632 5636 5641 5645 5649 5654 5658 5663 5669 5675 5679 5683 5687 5690 5692 5696 5700 5705 5708 5711 5715 5719 5721 5724 5727 5730 5735 5737 5735 5735 5739 5741 5742 5745 5747 5751 5756 5760 5762 5763 5765 5767 5768 5770
5577 5573 5570 5568 5564 5561 5557 5554 5552 5549 5548 5545 5542 5539 5537 5535 5534 5534 5534 5534 5534 5535 5536 5538 5540 5542 5545 5548 5551 5555 5559 5563 5567 5570 5575 5581 5586 5595 5603 5608 5613 5617 5621 5627 5631 5635 5639 5643 5648 5653 5658 5664 5671 5676 5679 5682 5686 5690 5692 5694 5698 5704 5707 5709 5714 5719 5721 5723 5726 5727 5731 5733 5732 5733 5736 5738 5741 5743 5745 5748 5753 5756 5759 5761 5763 5765 5767 5768
5578 5575 5572 5570 5567 5563 5560 5557 5554 5553 5551 5548 5545 5542 5541 5539 5538 5537 5536 5537 5537 5538 5540 5541 5543 5545 5548 5551 5555 5558 5560 5566 5571 5573 5578 5584 5590 5597 5605 5611 5616 5619 5622 5626 5631 5635 5639 5642 5646 5650 5654 5659 5665 5670 5674 5677 5681 5686 5690 5692 5696 5702 5707 5709 5713 5717 5720 5722 5724 5725 5728 5730 5730 5732 5734 5736 5739 5741 5743 5747 5751 5753 5755 5758 5761 5763 5764 5766
5581 5578 5575 5572 5569 5566 5562 5560 5557 5555 5553 5550 5547 5545 5544 5543 5542 5541 5541 5541 5542 5543 5544 5545 5547 5549 5551 5555 5559 5562 5563 5567 5573 5576 5580 5587 5593 5600 5606 5612 5617 5621 5623 5628 5633 5636 5640 5642 5646 5649 5652 5656 5660 5664 5668 5673 5677 5682 5686 5691 5695 5699 5704 5708 5711 5714 5717 5720 5723 5724 5726 5728 5729 5730 5731 5734 5736 5739 5742 5745 5748 5750 5752 5755 5757 5759 5761 5763
5583 5580 5577 5574 5571 5568 5565 5563 5560 5558 5555 5553 5550 5548 5547 5546 5546 5545 5545 5545 5546 5547 5548 5549 5551 5554 5557 5559 5562 5566 5567 5569 5574 5578 5583 5589 5596 5602 5607 5612 5619 5622 5624 5628 5632 5636 5639 5643 5647 5650 5653 5657 5661 5664 5669 5673 5676 5678 5683 5689 5693 5697 5702 5707 5710 5713 5715 5719 5721 5722 5723 5726 5727 5727 5728 5730 5733 5737 5740 5743 5746 5748 5750 5752 5754 5756 5758 5760
5583 5581 5579 5576 5573 5570 5568 5566 5563 5560 5558 5555 5553 5551 5550 5549 5549 5549 5549 5549 5550 5551 5551 5553 5555 5558 5561 5563 5565 5569 5571 5572 5576 5580 5584 5591 5598 5604 5608 5615 5620 5622 5624 5628 5632 5636 5639 5643 5647 5650 5654 5659 5663 5667 5670 5672 5675 5678 5682 5687 5691 5695 5699 5703 5707 5711 5714 5716 5719 5720 5721 5723 5724 5724 5725 5727 5731 5735 5737 5740 5743 5745 5747 5750 5752 5754 5756 5758
5584 5582 5580 5577 5575 5572 5570 5568 5566 5563 5561 5558 5556 5555 5554 5553 5553 5553 5553 5553 5554 5555 5556 5557 5559 5561 5563 5566 5568 5571 5573 5575 5579 5583 5586 5593 5600 5605 5610 5616 5620 5622 5625 5628 5632 5636 5639 5643 5647 5650 5654 5659 5663 5667 5671 5673 5675 5677 5681 5686 5691 5695 5699 5701 5704 5709 5712 5714 5716 5717 5719 5721 5721 5723 5724 5726 5729 5733 5735 5738 5741 5743 5745 5747 5749 5751 5753 5755
5586 5584 5582 5580 5577 5574 5572 5571 5569 5566 5564 5561 5559 5558 5557 5557 5557 5557 5557 5558 5558 5559 5560 5561 5563 5565 5567 5570 5571 5572 5575 5579 5583 5587 5589 5594 5601 5606 5610 5615 5618 5621 5625 5629 5632 5635 5639 5643 5646 5650 5654 5657 5660 5664 5668 5672 5675 5677 5680 5685 5690 5695 5698 5700 5702 5705 5708 5711 5713 5715 5717 5718 5718 5720 5723 5724 5727 5730 5733 5736 5739 5741 5743 5745 5747 5749 5751 5753
5588 5586 5584 5582 5580 5578 5576 5574 5572 5569 5567 5564 5562 5561 5560 5560 5560 5561 5561 5561 5562 5563 5564 5565 5566 5568 5571 5575 5575 5576 5578 5582 5586 5590 5593 5597 5602 5608 5611 5614 5617 5621 5625 5629 5632 5636 5640 5643 5646 5649 5652 5654 5657 5661 5665 5669 5672 5675 5679 5684 5689 5692 5696 5698 5701 5702 5705 5708 5711 5713 5714 5714 5714 5717 5720 5722 5724 5728 5732 5735 5738 5740 5742 5744 5745 5747 5749 5751
5589 5587 5586 5584 5583 5581 5579 5577 5575 5572 5570 5568 5566 5564 5564 5563 5563 5564 5564 5565 5566 5567 5568 5568 5570 5572 5575 5578 5580 5580 5583 5586 5589 5592 5595 5599 5604 5609 5613 5616 5619 5623 5626 5629 5632 5636 5640 5643 5647 5649 5651 5653 5656 5660 5663 5665 5668 5672 5677 5682 5686 5690 5692 5695 5698 5699 5702 5705 5708 5709 5710 5711 5712 5715 5717 5719 5723 5727 5730 5733 5735 5737 5739 5741 5743 5745 5746 5748
5591 5589 5588 5587 5586 5583 5581 5579 5577 5575 5573 5571 5569 5568 5567 5567 5567 5567 5568 5568 5569 5570 5572 5573 5574 5576 5577 5580 5582 5584 5586 5589 5592 5594 5597 5601 5606 5611 5615 5619 5621 5624 5627 5629 5633 5636 5640 5644 5647 5649 5651 5653 5656 5658 5661 5663 5667 5671 5674 5678 5683 5686 5688 5691 5694 5697 5700 5702 5704 5705 5706 5708 5710 5712 5714 5717 5720 5724 5728 5731 5733 5735 5736 5738 5740 5742 5743 5744